Ellensburg, WA
on Thursday, February 14, 2013

Thursday
Previous Day Next Day
Daily Summary
 ActualAverage (KYKM)Record (KYKM)
Temperature
Mean Temperature °F 36°F  
Max Temperature 55°F 46°F 62°F (1982)
Min Temperature 35°F 26°F 5°F (1949)
Degree Days
Heating Degree Days 20 29  
Month to date heating degree days 423  
Since 1 July heating degree days 4141  
Cooling Degree Days 0 0  
Month to date cooling degree days 0  
Year to date cooling degree days 0  
Moisture
Dew Point 31°F   
Average Humidity 62    
Maximum Humidity 78    
Minimum Humidity 45    
Precipitation
Precipitation 0.00 in 0.02 in 0.35 in (1986)
Month to date precipitation 0.40  
Year to date precipitation 1.54  
Snow
Snow 0.00 in 0.10 in 3.10 in (1986)
Month to date snowfall 1.5  
Year to date snowfall 6.8  
Since 1 July snowfall 19.8  
Snow Depth in   
Wind
Wind Speed 14 mph   
Max Wind Speed 24 mph   
Max Gust Speed 33 mph   
Visibility 10 miles   
Events     

Key: T is trace of precipitation, MM is missing value
Source: NWS Daily Summary
Time(PST)TemperatureDew PointHumidity Pressure Visibility Wind DirectionWind SpeedGust SpeedPrecipitationEvents Conditions
12:53 AM 41.0°F 30.0°F 65% 30.42 in 10.0 miles NW 16.1 mph - N/A   Clear
1:53 AM 39.0°F 28.9°F 67% 30.43 in 10.0 miles WNW 8.1 mph - N/A   Clear
2:53 AM 37.0°F 28.0°F 70% 30.42 in 10.0 miles WNW 11.5 mph - N/A   Clear
3:53 AM 39.0°F 28.9°F 67% 30.43 in 10.0 miles NW 9.2 mph - N/A   Partly Cloudy
4:53 AM 39.0°F 28.9°F 67% 30.44 in 10.0 miles WNW 4.6 mph - N/A   Mostly Cloudy
5:53 AM 39.0°F 28.9°F 67% 30.43 in 10.0 miles NW 9.2 mph - N/A   Overcast
6:53 AM 41.0°F 30.0°F 65% 30.44 in 10.0 miles NW 12.7 mph - N/A   Overcast
7:53 AM 41.0°F 28.9°F 62% 30.45 in 10.0 miles NW 17.3 mph - N/A   Overcast
8:53 AM 43.0°F 30.0°F 60% 30.46 in 10.0 miles NW 19.6 mph - N/A   Overcast
9:53 AM 44.1°F 30.9°F 60% 30.47 in 10.0 miles NW 20.7 mph 28.8 mph N/A   Overcast
10:53 AM 48.9°F 32.0°F 52% 30.45 in 10.0 miles WNW 18.4 mph - N/A   Clear
11:53 AM 52.0°F 33.1°F 49% 30.45 in 10.0 miles WNW 23.0 mph 28.8 mph N/A   Clear
12:53 PM 54.0°F 33.1°F 45% 30.43 in 10.0 miles WNW 23.0 mph 33.4 mph N/A   Clear
1:53 PM 55.0°F 34.0°F 45% 30.42 in 10.0 miles NW 21.9 mph 27.6 mph N/A   Clear
2:53 PM 54.0°F 33.1°F 45% 30.44 in 10.0 miles NW 24.2 mph 29.9 mph N/A   Clear
3:53 PM 53.1°F 34.0°F 48% 30.44 in - NW 21.9 mph 32.2 mph N/A   Mostly Cloudy
4:53 PM 50.0°F 34.0°F 54% 30.44 in 10.0 miles NW 20.7 mph - N/A   Partly Cloudy
5:53 PM 46.9°F 34.0°F 61% 30.45 in 10.0 miles WNW 20.7 mph - N/A   Clear
6:53 PM 46.0°F 34.0°F 63% 30.46 in 10.0 miles WNW 15.0 mph - N/A   Clear
7:53 PM 44.1°F 33.1°F 65% 30.46 in 10.0 miles NW 10.4 mph - N/A   Clear
8:53 PM 39.9°F 32.0°F 73% 30.47 in 10.0 miles WSW 5.8 mph - N/A   Clear
9:53 PM 39.9°F 32.0°F 73% 30.49 in 10.0 miles Calm Calm - N/A   Clear
10:53 PM 35.1°F 28.9°F 78% 30.51 in 10.0 miles NE 5.8 mph - N/A   Clear
11:53 PM 35.1°F 28.9°F 78% 30.52 in 10.0 miles ENE 6.9 mph - N/A   Clear
Moon Phase
Feb. 14 Feb. 17 Feb. 25 Mar. 04 Mar. 11
Sunrise:07:07 AM (PST) Moon Rise:08:50 AM (PST)2/14
Sunset:05:25 PM (PST) Moon Set:10:58 PM (PST)2/14

Copyright © 2014 The Weather Underground, Inc.